Overview Statistics Trail Chart Weather Telemetry Raw packets
 

This is the latest recevied weather packets stored in our database for station/object YO3FVR-WX. If no packets are shown the sender has not sent any weather packets the latest 10 day(s).

<< 30 31 32 33 34 35 36 >>
Time Temp. Humidity Pressure Rain* Wind** Luminosity Snow
1788160498 24.44° C 56% 1013.9 hPa 0 mm - - -
1788159869 23.89° C 57% 1013.9 hPa 0 mm - - -
1788159268 23.33° C 58% 1013.7 hPa 0 mm - - -
1788158638 23.33° C 58% 1013.8 hPa 0 mm - - -
1788158039 23.33° C 60% 1013.8 hPa 0 mm - - -
1788157408 22.78° C 61% 1013.7 hPa 0 mm - - -
1788156779 22.22° C 62% 1013.7 hPa 0 mm - - -
1788156179 22.22° C 63% 1013.9 hPa 0 mm - - -
1788155548 21.67° C 64% 1013.8 hPa 0 mm - - -
1788154919 21.67° C 64% 1013.8 hPa 0 mm - - -
1788154288 21.11° C 65% 1013.8 hPa 0 mm - - -
1788153658 21.11° C 65% 1013.7 hPa 0 mm - - -
1788153058 20.56° C 65% 1013.8 hPa 0 mm - - -
1788152429 20.56° C 66% 1013.8 hPa 0 mm - - -
1788151799 20.56° C 69% 1013.7 hPa 0 mm - - -
1788151199 20° C 70% 1013.6 hPa 0 mm - - -
1788150569 20° C 70% 1013.6 hPa 0 mm - - -
1788149939 19.44° C 69% 1013.5 hPa 0 mm - - -
1788149309 19.44° C 70% 1013.4 hPa 0 mm - - -
1788148679 19.44° C 70% 1013.5 hPa 0 mm - - -
1788148079 19.44° C 71% 1013.5 hPa 0 mm - - -
1788147449 19.44° C 71% 1013.5 hPa 0 mm - - -
1788146819 20° C 71% 1013.5 hPa 0 mm - - -
1788146189 20° C 71% 1013.4 hPa 0 mm - - -
1788145559 20° C 71% 1013.4 hPa 0 mm - - -

* Rain latest hour (hover to see other rain measurements)
** Current wind speed in m/s (hover to see current wind gust speed)